TimeMST,TemperatureF,Dew PointF,Humidity,Sea Level PressureIn,VisibilityMPH,Wind Direction,Wind SpeedMPH,Gust SpeedMPH,PrecipitationIn,Events,Conditions,WindDirDegrees,DateUTC
12:14 AM,33.8,30.2,87,29.85,10.0,NNW,5.8,-,N/A,,Overcast,330,2012-11-22 07:14:00
12:53 AM,34.0,30.0,85,29.94,10.0,NW,10.4,-,N/A,,Overcast,310,2012-11-22 07:53:00
1:10 AM,33.8,30.2,87,29.87,10.0,NW,8.1,-,N/A,,Overcast,320,2012-11-22 08:10:00
1:24 AM,33.8,30.2,87,29.87,10.0,WNW,6.9,-,N/A,,Overcast,300,2012-11-22 08:24:00
1:53 AM,33.1,28.0,82,29.96,10.0,WNW,11.5,-,N/A,,Overcast,300,2012-11-22 08:53:00
2:53 AM,30.0,25.0,82,30.01,10.0,West,8.1,-,N/A,,Mostly Cloudy,280,2012-11-22 09:53:00
3:53 AM,28.9,23.0,78,30.03,10.0,NW,17.3,23.0,N/A,,Overcast,310,2012-11-22 10:53:00
4:53 AM,28.9,21.9,75,30.07,10.0,NW,12.7,19.6,N/A,,Overcast,320,2012-11-22 11:53:00
5:24 AM,26.6,21.2,80,30.01,10.0,WNW,8.1,-,N/A,,Partly Cloudy,300,2012-11-22 12:24:00
5:42 AM,26.6,21.2,80,30.02,10.0,NW,10.4,-,N/A,,Mostly Cloudy,310,2012-11-22 12:42:00
5:53 AM,27.0,21.0,78,30.11,10.0,NW,11.5,-,N/A,,Mostly Cloudy,320,2012-11-22 12:53:00
6:38 AM,24.8,19.4,80,30.07,10.0,NNW,10.4,-,N/A,,Overcast,330,2012-11-22 13:38:00
6:53 AM,25.0,18.0,75,30.16,10.0,NW,10.4,-,N/A,,Overcast,310,2012-11-22 13:53:00
7:03 AM,24.8,17.6,74,30.09,10.0,NW,9.2,-,N/A,,Overcast,320,2012-11-22 14:03:00
7:53 AM,24.1,17.1,75,30.21,10.0,NW,17.3,21.9,N/A,,Overcast,310,2012-11-22 14:53:00
8:43 AM,23.0,14.0,68,30.17,10.0,NNW,18.4,24.2,N/A,,Overcast,330,2012-11-22 15:43:00
8:53 AM,23.0,14.0,68,30.26,10.0,NNW,13.8,-,N/A,,Overcast,330,2012-11-22 15:53:00
9:53 AM,21.0,12.9,71,30.31,10.0,NW,23.0,27.6,N/A,,Overcast,310,2012-11-22 16:53:00
10:53 AM,21.9,14.0,72,30.34,5.0,NW,24.2,28.8,0.00,Snow,Light Snow,310,2012-11-22 17:53:00
11:53 AM,19.9,10.9,68,30.38,10.0,WNW,21.9,26.5,0.00,,Overcast,300,2012-11-22 18:53:00
12:53 PM,19.9,10.0,65,30.41,10.0,NW,21.9,29.9,N/A,,Overcast,310,2012-11-22 19:53:00
1:45 PM,19.4,10.4,68,30.36,8.0,NW,20.7,28.8,0.00,Snow,Light Snow,310,2012-11-22 20:45:00
1:53 PM,19.0,9.0,65,30.46,9.0,NW,24.2,32.2,0.00,,Overcast,320,2012-11-22 20:53:00
2:26 PM,19.4,8.6,63,30.39,10.0,NW,20.7,28.8,0.00,,Overcast,320,2012-11-22 21:26:00
2:53 PM,19.0,9.0,65,30.50,10.0,NW,21.9,29.9,0.00,,Mostly Cloudy,310,2012-11-22 21:53:00
3:08 PM,19.4,8.6,63,30.41,10.0,NW,18.4,27.6,N/A,,Scattered Clouds,310,2012-11-22 22:08:00
3:53 PM,18.0,8.1,65,30.55,10.0,NW,16.1,-,N/A,,Clear,320,2012-11-22 22:53:00
4:53 PM,16.0,8.1,71,30.58,10.0,WNW,11.5,-,N/A,,Clear,300,2012-11-22 23:53:00
5:53 PM,15.1,8.1,74,30.60,10.0,WNW,6.9,-,N/A,,Partly Cloudy,290,2012-11-23 00:53:00
6:53 PM,15.1,8.1,74,30.64,10.0,West,3.5,-,N/A,,Clear,270,2012-11-23 01:53:00
7:53 PM,12.9,7.0,77,30.66,10.0,Calm,Calm,-,N/A,,Clear,0,2012-11-23 02:53:00
8:53 PM,12.0,6.1,77,30.66,10.0,West,4.6,-,N/A,,Clear,280,2012-11-23 03:53:00
9:53 PM,10.9,6.1,81,30.68,10.0,West,5.8,-,N/A,,Clear,260,2012-11-23 04:53:00
10:53 PM,10.0,6.1,84,30.68,10.0,West,3.5,-,N/A,,Clear,260,2012-11-23 05:53:00
11:53 PM,10.0,5.0,80,30.68,10.0,Calm,Calm,-,N/A,,Clear,0,2012-11-23 06:53:00